Wind_Speed
19 19 20 19 21 24 24 24 26 26 24 23 18 16 14 15 14 12 10 8 7 7 7 8 9 10 12 13 14 13 13 13 15 10 8 4 3 2 9 8 9 14 16
13 18 19 20 25 29 27 27 27 29 26 25 21 18 17 14 13 12 10 8 7 6 6 6 7 9 10 11 14 14 11 10 12 11 7 5 9 3 20 6 12 14 17
16 15 21 22 23 27 31 30 30 30 28 26 23 19 16 14 12 11 10 9 8 6 5 5 6 6 8 10 12 12 11 11 10 8 8 6 5 19 4 16 8 22 20
16 16 21 24 29 30 32 30 30 29 28 27 21 21 17 14 11 13 11 10 8 7 5 4 4 5 8 9 9 10 10 9 9 8 7 5 9 6 9 11 18 15 19
19 19 26 27 26 27 33 33 30 29 28 28 23 21 16 12 12 13 13 12 10 7 6 5 4 6 7 8 8 8 9 9 8 8 9 8 11 10 15 11 18 17 17
16 18 18 19 23 24 30 33 31 28 29 28 25 23 20 17 13 15 14 12 10 8 6 5 4 5 6 7 8 10 10 10 9 7 8 9 11 13 15 14 18 18 19
12 13 17 22 23 28 29 31 30 26 29 28 25 22 19 18 16 14 14 13 10 8 8 7 5 5 6 8 8 9 9 9 8 9 9 10 10 11 12 14 15 15 17
7 13 17 20 21 24 27 28 29 26 29 28 25 21 18 15 13 14 14 11 11 10 11 9 6 6 6 7 8 9 8 7 8 9 9 9 10 10 11 11 13 10 15
2 5 10 13 17 21 25 29 27 25 29 26 23 20 17 15 14 16 16 14 14 15 12 6 4 6 6 8 8 8 8 8 8 8 9 9 10 10 10 10 10 11 8
6 5 5 10 13 17 20 22 24 24 27 26 23 20 17 16 16 18 18 19 17 13 7 5 7 7 7 7 8 7 8 8 9 9 10 10 9 9 9 9 10 10 12
5 4 4 6 11 13 16 20 23 26 28 27 24 22 19 19 20 22 21 18 14 9 6 8 7 7 7 7 7 7 8 8 9 10 9 8 8 9 10 10 11 12 13
4 5 7 10 12 14 16 18 21 24 25 26 25 23 22 22 25 24 19 15 11 10 8 7 6 7 7 7 6 6 7 9 10 9 9 9 9 9 9 11 12 13 13
6 7 9 10 13 15 17 18 20 23 24 25 26 25 24 25 25 20 16 13 11 9 7 6 7 8 7 6 5 6 7 8 8 9 9 9 9 9 10 13 12 13 15
7 7 8 12 14 16 18 20 21 22 24 25 25 25 24 25 21 17 15 12 9 9 9 9 8 7 6 5 5 7 7 8 8 8 8 9 8 10 12 12 12 14 16
9 9 10 13 16 19 19 21 22 23 25 27 25 24 25 22 19 16 14 11 10 10 9 9 7 6 4 4 6 6 9 10 9 9 9 9 8 9 10 10 13 16 17
12 11 13 16 18 20 21 23 24 24 26 26 25 24 23 20 18 15 13 12 11 10 9 7 6 4 3 5 7 8 10 10 10 10 9 10 9 12 11 12 16 14 16
15 14 15 18 19 21 24 25 26 25 24 24 23 23 21 19 16 14 13 12 10 9 8 6 4 3 2 4 7 10 9 8 9 10 10 11 11 12 13 16 14 14 14
17 15 20 21 21 23 24 26 25 23 23 23 24 22 18 16 15 13 12 11 9 7 6 5 3 2 3 5 7 10 9 8 9 10 10 11 12 12 15 17 17 16 15
22 23 23 25 26 26 27 26 24 23 24 22 20 18 17 16 15 14 12 10 8 6 5 3 2 3 4 6 9 10 10 10 11 11 10 12 13 14 16 17 17 18 15
26 28 27 28 28 26 26 26 24 23 21 20 19 17 16 16 15 14 12 9 6 6 5 3 1 2 3 8 10 11 11 12 13 13 12 11 13 15 16 16 16 17 18
28 29 30 31 30 28 26 24 23 21 21 21 20 18 16 16 16 14 11 9 7 6 5 3 1 1 3 6 10 10 10 13 14 14 14 13 14 15 15 14 13 16 19
30 31 31 29 29 29 27 25 22 22 22 21 19 17 16 15 15 14 11 9 8 6 4 3 2 2 4 7 9 10 9 12 13 15 15 15 16 16 15 12 13 14 14
30 30 29 29 27 27 26 26 23 24 22 20 17 16 15 14 14 13 10 8 7 5 4 3 3 4 5 7 10 9 10 11 14 13 16 13 14 15 12 12 12 12 12
29 29 29 28 26 24 22 22 26 24 22 19 17 16 15 14 13 10 9 7 6 5 4 4 5 5 5 8 10 11 12 13 14 15 14 14 13 11 11 11 11 12 12
27 29 30 29 27 25 22 25 26 25 20 18 16 15 13 14 12 8 6 5 5 5 4 4 4 3 4 7 8 12 12 13 14 16 13 13 12 13 12 12 12 13 14
29 28 27 28 27 25 24 25 26 25 21 18 16 14 13 13 11 8 6 5 3 2 2 4 2 0 3 5 10 12 10 13 14 11 12 13 12 12 13 13 14 14 15
Wind_Direction
199 194 195 193 187 189 184 181 178 180 177 168 160 158 155 153 152 150 146 142 134 122 103 89 75 59 48 44 36 31 29 22 15 4 345 279 271 27 8 359 12 12 8
193 188 186 189 192 187 187 186 185 185 184 181 175 169 164 160 158 157 156 151 144 132 111 91 74 58 49 40 35 34 22 17 20 4 335 340 324 347 332 337 339 353 351
195 191 187 190 187 189 189 190 190 190 190 187 182 176 169 166 167 167 163 156 153 144 127 102 82 67 52 43 33 26 24 5 5 18 6 332 334 328 347 328 340 337 337
200 191 191 189 193 193 191 193 193 193 193 192 187 185 180 175 187 181 174 167 160 153 142 129 113 73 50 34 26 14 12 7 359 354 355 322 311 321 314 323 321 329 327
194 195 197 198 193 189 191 193 194 193 193 194 192 188 185 185 187 186 178 173 168 165 158 146 98 62 45 33 15 16 33 35 32 21 358 336 323 316 313 314 327 322 320
195 202 198 191 187 188 192 193 192 194 195 196 197 197 195 193 184 185 180 175 167 159 163 129 90 54 42 30 52 59 52 51 46 25 9 349 335 323 318 312 316 320 317
187 190 182 187 188 189 190 192 190 188 193 197 198 198 200 203 201 193 186 176 163 155 146 129 99 76 46 71 64 57 47 38 28 15 354 341 336 332 324 320 327 322 320
200 200 197 194 192 190 190 190 189 188 191 194 196 196 195 198 200 201 184 170 158 141 131 120 88 69 84 73 63 56 50 36 22 11 0 350 347 342 335 329 328 326 325
57 201 191 185 186 188 191 191 190 188 190 190 190 190 193 195 188 173 172 162 142 135 134 120 101 107 88 71 58 60 43 28 16 6 358 349 341 339 335 333 331 325 322
69 78 139 171 181 188 190 188 186 182 184 184 182 179 177 175 170 166 153 141 138 134 130 115 114 103 82 64 60 49 30 17 7 355 347 342 338 340 343 342 339 332 320
67 67 92 146 159 163 170 173 172 177 177 175 170 164 158 155 154 151 142 138 140 139 122 118 108 95 81 71 61 43 22 6 355 348 343 342 341 339 338 336 331 324 322
97 88 95 116 131 139 150 155 159 160 162 161 156 152 149 146 144 142 139 140 131 121 119 109 100 98 87 74 55 32 10 2 353 346 344 339 336 336 334 335 331 328 326
110 92 96 109 121 127 133 138 143 145 147 149 148 141 138 138 139 135 130 129 129 126 121 114 115 109 96 76 43 18 7 1 351 347 347 348 348 347 342 336 332 329 324
135 124 121 119 122 125 131 133 134 140 141 139 136 133 135 138 137 133 132 134 134 131 131 128 119 109 93 63 29 12 4 354 352 352 351 349 345 341 337 335 331 327 326
153 149 140 132 130 128 130 132 134 138 139 134 132 133 136 138 135 135 135 132 128 129 132 129 119 108 79 37 19 2 357 353 355 351 352 347 345 341 340 339 332 325 323
165 158 147 142 139 139 138 137 137 138 138 133 132 137 139 137 135 133 130 128 126 130 135 128 122 103 66 23 13 10 353 353 349 345 346 346 345 338 336 333 327 323 320
167 164 156 149 147 147 146 142 140 139 135 133 135 141 139 136 132 130 128 125 127 135 134 128 109 80 49 9 7 355 354 352 345 342 340 340 336 339 334 330 325 320 320
167 162 156 151 149 147 145 140 141 140 137 135 139 140 136 132 132 130 128 129 134 140 137 126 106 51 5 358 350 349 349 349 340 336 337 337 332 333 335 328 324 323 323
166 161 159 153 150 150 148 144 142 141 140 139 140 142 141 139 141 138 136 135 139 140 133 120 61 9 2 355 346 349 347 343 338 333 327 329 331 330 332 327 323 321 321
160 156 156 151 150 153 152 147 145 145 145 146 146 148 148 146 149 147 142 137 134 142 136 133 84 360 3 345 345 348 342 336 335 331 326 326 330 331 332 329 324 319 323
159 156 157 158 156 156 155 149 150 152 151 149 150 150 151 153 153 148 143 136 133 140 147 144 98 333 335 335 340 341 343 335 328 326 326 325 330 331 328 326 322 318 315
159 161 159 159 159 160 157 154 155 154 152 152 153 152 155 157 155 151 149 146 142 148 163 181 238 286 312 320 329 335 340 332 327 323 323 323 323 326 326 330 325 322 326
162 164 162 157 161 164 164 156 157 156 155 154 154 156 159 162 162 158 158 158 165 176 194 220 265 284 300 313 325 333 335 333 329 318 317 319 325 327 331 326 335 340 331
165 165 162 161 162 165 165 160 158 158 157 156 160 164 164 166 168 168 168 175 191 208 230 253 281 283 300 320 328 331 332 333 333 326 323 321 329 337 337 341 342 340 334
166 167 166 164 164 164 160 163 163 163 159 160 165 167 166 167 170 173 179 191 197 218 252 273 277 284 317 329 327 332 329 332 329 327 326 333 342 346 345 344 343 341 339
166 168 168 163 163 163 162 166 169 168 162 163 167 169 166 165 170 170 158 171 178 201 248 258 245 263 338 337 331 332 326 336 334 334 334 338 342 345 341 340 340 340 337
Height
837 843 850 855 860 865 869 873 877 881 885 889 893 896 898 900 902 903 904 905 906 906 907 907 907 907 906 905 904 903 902 901 899 897 895 892 891 890 890 889 887 886 884
835 840 846 851 855 860 865 870 874 879 884 888 891 894 897 900 902 903 904 905 906 907 907 907 907 907 907 906 905 904 904 903 900 900 895 890 890 891 889 888 887 885 883
829 834 840 846 853 857 860 866 871 876 881 886 890 893 896 900 902 903 904 905 906 907 907 908 907 907 907 906 905 904 904 904 903 902 901 893 888 890 887 887 886 885 883
822 827 836 840 844 849 856 863 868 873 878 883 887 890 894 897 900 901 903 905 906 907 908 907 907 907 907 907 907 905 905 905 904 903 902 901 898 892 884 886 885 886 884
812 819 826 831 839 846 851 858 865 870 875 880 884 888 892 895 897 900 902 904 906 907 907 907 908 908 907 906 906 905 905 905 905 904 902 900 898 896 893 884 885 885 882
810 815 822 830 836 843 849 854 860 866 872 877 882 885 889 892 895 898 900 903 905 906 907 908 909 908 908 907 906 905 905 905 905 905 903 901 899 896 894 889 886 884 880
808 814 818 824 831 836 842 849 856 862 868 873 878 882 886 890 893 895 898 900 903 905 906 908 908 908 908 908 907 906 906 907 906 905 903 901 899 896 894 891 887 884 879
807 810 815 820 827 833 839 845 851 858 863 869 875 879 883 887 890 892 895 899 901 904 907 908 909 909 908 908 907 907 907 907 905 904 902 901 899 897 894 891 888 883 878
811 811 815 819 825 831 835 840 848 855 861 867 872 876 880 884 886 890 893 896 900 903 905 907 906 907 908 908 908 908 907 906 905 903 902 900 898 895 893 891 889 886 879
813 814 816 819 823 828 833 839 845 852 857 863 869 873 877 881 884 888 891 896 900 903 905 905 906 907 907 908 908 908 908 906 905 904 901 899 897 895 893 891 889 886 884
818 819 819 820 823 827 832 837 843 848 854 861 866 871 876 880 883 888 892 896 899 902 903 905 906 907 908 908 908 909 907 906 905 903 901 899 896 894 892 890 888 886 883
822 823 823 823 825 828 832 837 841 847 853 859 864 870 875 880 884 889 893 896 899 901 903 905 906 907 908 908 909 908 907 905 904 902 900 897 895 893 891 889 887 884 882
823 823 825 827 829 831 834 839 843 848 854 860 864 870 876 881 886 890 894 897 899 901 903 905 906 907 908 908 908 907 905 904 903 901 898 896 894 892 890 888 886 883 880
824 826 828 830 832 834 838 841 846 851 856 861 867 872 878 883 887 890 894 896 898 901 903 905 906 907 908 908 907 906 904 903 900 898 896 895 893 891 889 887 885 882 878
824 826 828 831 833 836 840 844 849 854 859 863 869 875 880 884 887 891 893 896 899 902 904 905 906 907 908 908 907 905 903 901 899 897 895 894 892 890 888 886 884 881 877
821 825 828 831 834 837 842 846 851 857 861 865 871 876 881 885 888 892 895 897 900 902 904 906 907 908 909 908 906 904 902 900 898 897 894 893 891 889 886 884 882 880 876
817 822 826 830 835 839 843 848 853 859 864 868 873 878 882 886 890 893 896 899 902 904 905 907 908 909 909 907 906 903 902 899 898 896 893 891 889 887 884 881 878 876 873
811 818 824 830 836 841 846 850 856 861 865 870 875 880 884 888 892 895 898 900 902 905 906 907 907 908 908 906 905 902 900 898 896 895 893 890 888 885 882 878 875 873 869
806 814 822 828 835 842 847 851 857 862 867 872 877 881 884 888 892 895 897 900 902 904 905 907 908 908 907 906 905 903 899 898 896 894 892 889 886 883 880 876 872 869 866
804 811 820 827 834 842 847 852 857 863 868 872 877 881 884 887 891 894 896 899 901 903 904 905 906 905 906 905 905 903 899 897 894 892 890 888 884 881 878 874 870 867 863
803 811 819 823 831 839 846 852 857 862 867 871 876 880 884 887 890 893 895 897 900 902 903 905 906 906 905 905 903 902 899 897 894 891 888 885 882 878 875 871 868 865 862
802 810 817 823 830 836 843 850 856 861 866 871 875 879 883 886 889 891 894 897 898 901 902 903 904 905 904 903 902 899 897 896 894 891 887 884 880 876 871 868 865 862 859
803 810 817 824 830 836 841 847 854 860 865 870 875 879 883 886 888 891 894 896 898 899 900 900 900 901 902 902 900 897 894 893 891 889 885 880 876 873 869 866 862 859 857
802 810 817 824 830 836 842 847 853 859 864 870 875 879 882 885 888 890 891 893 896 897 898 898 898 898 899 899 898 896 893 891 888 887 883 878 873 870 867 864 861 859 856
802 809 815 821 829 835 840 846 852 858 864 869 874 878 881 884 887 889 891 892 892 895 896 896 897 896 897 898 897 895 891 888 885 883 880 877 872 869 866 864 861 858 855
798 807 814 821 828 834 839 845 850 857 863 868 873 876 879 882 885 887 889 890 891 892 894 894 895 895 894 895 894 892 889 886 882 881 879 876 872 868 866 863 860 857 854